Location: Darlington Observatory
(36.4817°N, 105.8156°W)
Time: 04:34:39
(UTC-06:00)

MOS 1 - Visible Passes

Search period start: 26 July 2017 00:00
Search period end: 05 August 2017 00:00
Orbit: 879 x 891 km, 99.3° (Epoch: 25 July)

Date Brightness Start Highest point End Pass type
(mag) Time Alt. Az. Time Alt. Az. Time Alt. Az.
26 Jul 7.3 20:39:24 10° WSW 20:41:38 12° W 20:43:52 10° WNW visible
27 Jul 7.2 20:37:23 10° WSW 20:39:52 13° W 20:42:21 10° WNW visible
30 Jul 7.1 20:31:30 10° SW 20:34:34 15° W 20:37:39 10° WNW visible
